RH
10 9 8 8 8 8 11 16 17 19 41 68 74 71 74 75 68 64 68 71 72 77 78 68 66 68 60 65 71 69 70 48 29 30 24 35 51 49 49 43 45 54 56 71 91 94 74 47 39 43 36 21 27 40 29 18 16 13 13 13 13 13 15 16 11 10 11 9 9 8 7 7 7 7 7 7 8 8 9 8 8 8 7 8 8 8
19 13 11 10 9 14 15 14 13 14 38 57 44 38 61 79 71 65 69 69 63 64 67 58 64 76 65 69 68 68 94 70 26 27 23 17 21 28 50 51 34 32 36 43 59 73 69 52 42 43 34 19 28 45 40 25 14 12 16 17 15 13 17 21 15 11 12 11 9 9 9 8 8 8 8 8 7 8 9 8 8 8 8 8 9 8
19 10 18 20 10 16 17 13 13 12 20 33 24 8 36 74 74 69 68 66 67 55 40 36 55 78 67 65 72 71 87 65 22 17 15 11 10 8 18 21 16 19 27 39 46 47 48 47 47 46 36 26 32 42 44 38 19 10 17 24 24 20 21 25 21 15 13 12 12 12 11 9 8 9 9 9 8 8 8 8 9 8 9 8 8 9
22 29 31 23 13 14 17 14 10 11 10 14 17 1 23 71 72 69 73 67 72 61 40 33 43 64 69 71 71 72 86 64 22 10 10 14 12 4 2 6 16 19 24 43 49 44 44 45 46 49 41 29 31 34 36 41 25 12 18 24 30 29 24 25 26 24 17 12 15 15 13 12 10 10 10 11 10 9 8 8 8 8 9 9 8 9
29 59 40 20 25 18 11 15 9 12 13 8 13 4 24 71 72 67 75 69 69 61 49 44 31 31 44 48 39 55 85 59 21 16 11 10 9 2 2 4 11 14 19 37 44 42 44 41 40 45 37 24 34 39 34 36 25 14 18 23 31 33 25 22 23 25 20 14 15 16 15 14 13 11 11 12 11 11 11 9 9 8 8 8 9 9
33 58 32 15 28 21 11 14 11 14 12 11 21 12 17 52 70 80 79 66 63 54 49 49 37 32 36 37 30 52 83 64 49 51 23 6 8 5 4 3 6 15 20 24 29 33 37 37 39 40 35 29 39 45 40 37 26 23 27 23 27 31 28 28 24 22 21 17 17 18 17 15 14 14 13 12 12 12 12 12 11 11 10 10 10 10
44 49 23 13 18 15 14 12 11 15 12 17 33 29 22 24 39 67 69 53 47 45 49 45 40 53 60 62 60 63 77 73 66 62 34 17 17 12 11 9 7 12 21 29 33 32 36 48 51 39 30 34 44 46 47 39 24 24 29 23 24 26 27 29 23 21 23 21 20 19 19 17 14 14 13 13 13 12 13 13 14 13 13 13 12 12
44 36 13 12 13 9 13 14 14 15 11 16 27 33 39 31 22 31 32 25 21 27 47 44 35 50 51 54 66 67 75 78 63 49 40 36 36 32 22 15 14 12 17 30 32 23 25 42 53 44 29 31 41 46 52 47 28 21 23 28 35 29 24 29 26 25 27 25 22 20 20 19 16 15 13 13 13 13 13 12 13 13 13 13 13 13
36 33 20 13 13 13 12 8 14 23 19 17 19 24 36 39 32 28 27 28 20 18 37 46 45 48 38 33 51 62 74 83 72 57 52 55 70 76 55 34 32 28 20 23 25 20 24 34 43 46 36 33 39 36 42 49 37 27 28 37 45 35 27 30 30 31 29 26 23 23 24 21 16 15 14 13 13 12 12 11 11 11 11 12 11 12
28 35 36 26 19 20 15 17 42 56 41 28 25 23 24 28 30 34 41 44 40 30 30 43 54 53 46 47 60 70 78 87 83 77 75 72 78 87 76 51 38 31 21 20 22 20 31 45 44 41 38 42 39 21 33 61 56 37 32 42 54 48 36 29 29 33 32 28 24 25 29 22 15 14 13 12 11 9 8 8 8 8 9 9 9 9
49 43 31 33 32 25 24 42 71 68 43 36 34 26 24 25 26 33 42 41 43 40 26 33 52 57 57 63 71 74 75 78 75 79 87 73 57 59 55 39 26 25 24 22 23 20 28 40 40 43 48 51 41 18 31 72 83 59 37 45 62 57 40 30 32 35 33 31 26 23 26 20 13 14 13 10 8 6 5 5 5 6 6 6 6 7
60 55 28 23 26 24 24 34 49 44 33 33 29 25 27 28 32 38 46 46 41 35 29 38 57 65 67 70 77 81 76 69 67 80 88 65 44 41 38 33 29 28 27 25 26 24 23 26 31 42 46 42 38 21 15 40 70 69 46 42 53 46 31 31 38 34 31 35 28 21 21 17 13 13 12 10 6 3 3 3 3 2 3 4 4 5
59 75 67 46 28 21 20 19 23 22 19 20 21 23 20 32 52 51 50 60 54 42 48 66 79 80 78 75 80 89 81 63 57 70 74 51 34 29 26 32 31 23 22 24 26 23 23 29 29 30 29 23 23 19 13 16 28 40 42 40 44 40 29 34 41 34 36 42 29 19 18 14 13 13 13 12 6 3 1 0 2 1 2 3 2 3
77 83 92 82 64 42 20 18 37 44 34 22 17 18 20 40 64 60 54 63 65 66 72 82 88 82 76 73 77 87 84 69 57 53 48 36 28 24 21 24 22 21 25 26 28 26 25 28 27 32 35 22 12 16 22 21 20 35 49 45 44 44 36 41 46 37 47 50 27 19 21 13 13 14 15 16 9 7 5 2 2 1 1 3 2 4
92 90 91 90 92 72 25 10 43 70 74 57 29 30 52 62 63 65 70 73 78 86 86 86 88 81 77 78 82 85 76 61 49 37 28 23 20 19 19 22 20 23 28 26 25 23 20 21 25 43 56 44 31 29 26 32 51 64 63 52 46 40 35 46 48 40 49 44 20 19 22 13 15 15 14 15 11 11 12 9 7 3 2 2 2 3
81 85 91 92 97 82 37 16 24 31 62 85 59 48 72 75 67 68 69 72 82 90 88 82 75 70 72 74 77 77 62 48 39 25 17 18 17 15 13 14 15 15 20 25 25 21 21 26 27 39 59 59 46 35 32 50 72 65 52 54 52 42 35 34 36 42 48 38 20 20 20 14 18 19 17 17 15 16 16 15 14 10 6 4 2 3
72 69 82 89 90 68 31 22 19 6 33 73 68 67 82 81 81 79 65 62 66 66 67 61 46 43 50 57 67 71 62 58 49 28 19 21 19 19 16 15 18 17 17 22 26 28 26 26 24 24 42 56 46 34 37 53 57 38 24 29 35 40 35 26 42 63 60 49 38 25 20 22 25 26 27 26 24 22 19 19 17 15 15 13 10 8
57 65 85 89 89 78 45 19 8 2 12 27 44 72 82 74 81 82 69 65 59 45 41 46 47 49 55 63 69 68 65 73 67 42 32 31 23 22 23 21 22 24 24 21 21 28 26 21 21 20 28 42 41 38 43 44 37 25 16 18 27 38 36 42 76 88 70 71 69 41 27 32 34 36 37 34 33 31 27 26 24 23 25 24 22 21
30 52 81 81 79 86 73 41 11 2 2 -1 16 48 62 64 70 66 60 63 61 45 33 43 63 70 73 76 72 67 71 83 81 63 54 51 35 20 18 23 27 24 25 27 22 23 29 29 27 25 27 34 34 35 39 34 29 25 23 31 41 42 41 61 93 94 79 85 82 57 44 43 43 45 45 42 40 37 35 36 36 33 30 32 35 36
18 27 43 51 61 76 79 60 32 21 20 8 2 12 22 25 30 43 63 77 75 62 49 54 68 74 78 83 83 83 83 82 81 76 80 85 63 29 15 26 36 26 23 34 32 22 26 35 35 30 34 43 42 36 31 29 39 47 40 38 43 43 51 72 89 85 77 74 66 61 60 56 54 54 53 53 51 50 51 50 49 47 43 44 44 41
11 13 17 27 47 68 72 57 43 48 58 54 45 38 27 14 13 24 41 60 73 78 74 65 60 66 73 77 86 92 87 79 71 65 78 93 73 34 18 25 30 25 23 33 37 26 19 29 39 37 38 47 49 41 33 38 59 70 58 48 52 58 70 87 91 78 72 69 61 61 64 60 57 60 66 68 61 58 60 59 61 63 58 50 42 39
12 11 13 18 24 33 42 49 64 80 80 72 71 68 63 65 68 58 45 52 68 79 83 68 51 59 68 69 79 85 78 69 53 47 72 94 74 40 32 34 29 26 27 30 36 33 19 19 32 40 42 49 54 53 51 57 71 76 67 62 64 65 72 84 87 80 79 79 70 72 79 72 63 67 75 76 65 57 56 56 62 66 60 50 42 42
18 12 11 17 15 11 19 40 66 82 72 54 43 41 52 68 78 77 72 72 70 70 83 82 64 61 64 63 69 71 72 70 49 38 61 78 61 41 43 47 40 35 36 36 37 37 28 19 23 35 45 52 60 67 65 61 64 75 82 82 78 73 70 72 76 79 86 87 81 84 91 85 80 81 80 77 72 65 61 57 58 64 63 58 55 52
19 16 12 14 14 10 13 18 25 36 37 25 14 12 17 22 30 37 39 45 50 50 65 76 66 59 61 64 67 62 65 77 63 43 51 55 40 33 39 44 43 42 45 49 46 40 38 34 29 33 47 57 66 74 75 65 60 71 85 93 95 93 89 85 82 83 88 93 89 87 88 86 85 83 81 80 76 72 71 65 60 64 66 65 63 58
12 13 12 12 14 13 13 13 21 37 40 38 44 36 14 4 10 12 11 20 24 19 30 39 34 45 58 62 73 74 68 76 70 53 55 52 36 36 42 39 38 42 46 52 52 43 41 47 43 37 44 59 70 76 80 79 76 79 86 94 99 101 100 100 98 94 94 95 95 95 95 93 89 86 85 82 78 80 84 80 73 67 62 61 63 62
11 12 13 12 14 14 13 19 43 67 63 60 68 53 29 26 28 23 26 34 23 13 24 22 11 32 50 52 69 78 72 77 74 60 56 46 35 46 55 44 39 46 53 54 52 47 44 48 48 43 41 51 64 74 79 82 85 87 86 87 93 97 98 100 101 100 97 95 96 96 92 90 91 93 91 83 79 86 93 96 95 89 83 80 80 83
14 12 11 11 13 14 12 17 36 54 51 52 59 51 47 49 38 31 38 44 37 32 33 25 14 25 42 58 80 85 80 84 76 64 62 51 40 48 56 53 53 61 69 65 54 49 49 47 48 52 48 42 47 61 72 76 80 84 83 82 85 86 87 89 92 95 95 96 99 99 94 91 88 90 94 89 81 78 81 90 93 93 97 98 96 100
15 13 12 13 12 12 12 11 14 18 21 30 38 39 41 33 19 18 20 23 35 39 37 36 32 27 34 58 83 86 85 88 82 79 83 75 66 62 60 67 76 74 71 66 57 53 54 51 52 59 58 47 39 43 55 66 71 74 77 80 82 81 81 82 81 80 81 82 84 88 92 92 86 83 84 79 76 78 78 81 83 80 85 92 94 101
14 13 14 13 11 12 13 13 12 12 11 14 15 17 22 18 14 16 12 11 21 24 27 35 35 32 38 52 69 73 68 71 76 80 79 76 79 77 66 72 86 84 74 67 60 55 55 58 63 66 63 56 49 42 40 47 55 62 65 69 74 77 79 80 78 75 72 68 66 67 71 74 77 78 70 59 70 90 89 82 84 81 80 86 91 96
20 21 20 17 15 13 10 9 10 10 11 14 16 15 16 17 20 22 21 21 19 15 22 28 24 30 40 44 53 56 50 54 66 71 69 69 76 82 76 75 84 91 92 86 73 63 59 60 65 66 59 57 59 54 42 34 37 46 51 54 60 63 65 68 69 68 67 65 62 62 62 62 67 76 76 63 65 75 71 67 72 70 67 73 80 90
32 33 33 32 30 27 26 24 21 19 17 15 15 15 13 13 14 17 18 17 18 21 27 26 21 25 32 36 42 41 35 43 60 73 84 87 86 91 92 87 87 94 101 100 92 82 70 62 61 61 59 59 60 59 51 36 27 31 37 39 43 46 49 52 53 55 56 57 57 58 58 58 60 66 71 65 59 57 54 55 60 60 60 59 57 70
40 40 46 51 47 40 41 41 38 40 35 21 12 13 14 11 7 7 10 11 17 27 32 34 39 42 41 42 48 45 36 37 49 65 86 98 98 100 99 92 90 96 101 103 102 96 82 68 59 56 59 64 62 60 58 47 35 32 34 35 36 36 36 38 38 40 42 44 47 50 54 63 68 67 66 63 57 50 45 48 54 57 60 57 49 51
50 46 48 59 58 49 51 54 50 47 38 24 18 18 19 21 18 16 21 24 31 37 34 34 45 58 58 51 51 53 51 52 53 55 68 84 93 100 101 95 93 96 97 101 105 100 90 80 64 53 59 65 62 61 66 64 57 46 39 39 40 37 36 37 35 35 35 36 38 42 53 68 73 72 75 75 63 51 47 51 55 58 62 62 59 54
33 28 28 41 47 40 43 49 46 39 28 20 27 34 34 38 39 32 31 36 42 45 41 36 40 48 54 54 54 56 55 57 59 60 67 76 81 86 91 94 100 102 98 100 103 97 92 87 70 56 64 67 57 59 71 73 66 56 45 41 40 39 41 42 40 39 37 37 37 37 46 57 58 58 65 70 68 67 71 74 72 71 74 75 72 64
10 8 7 13 16 14 22 33 35 30 19 17 35 46 38 34 37 36 38 45 50 52 53 56 50 40 46 62 68 64 57 52 54 68 87 91 85 81 83 87 95 99 97 99 102 96 90 88 77 69 77 79 65 62 69 66 58 59 59 50 41 42 47 45 43 43 41 40 40 38 38 41 43 45 46 53 68 83 94 98 96 90 87 90 90 84
12 13 13 15 19 21 28 36 36 30 28 41 64 72 58 46 41 41 44 51 59 62 60 58 50 38 43 60 64 57 55 51 47 60 82 90 85 81 86 90 89 92 100 102 99 92 84 83 84 82 86 91 81 69 65 57 50 58 69 61 47 45 49 48 47 47 45 44 44 43 41 38 39 40 38 41 56 73 82 90 96 96 97 100 102 99
32 33 33 33 34 34 37 44 48 48 52 64 74 72 63 52 45 48 52 46 46 49 43 37 37 33 30 35 33 29 31 32 29 31 41 57 69 74 81 89 89 93 103 103 93 84 79 83 93 88 83 88 85 69 60 51 41 46 59 57 46 41 44 50 54 54 50 48 47 46 45 43 42 42 41 40 42 46 49 54 60 66 72 79 83 84
72 63 52 47 49 52 53 54 52 50 50 53 55 53 48 39 36 45 50 41 38 43 40 36 38 33 26 25 24 22 23 23 23 21 21 31 48 53 50 59 72 80 90 95 86 76 78 93 102 89 74 72 65 53 53 54 45 40 42 40 34 30 33 41 48 52 52 54 55 55 52 49 48 47 47 47 46 44 43 43 43 42 42 45 49 51
94 88 77 75 74 66 54 41 33 34 37 37 39 42 40 37 39 41 40 40 42 43 45 47 42 30 23 23 23 25 32 33 29 27 24 25 36 38 29 33 47 57 68 81 81 72 75 84 79 62 52 50 43 38 45 51 47 39 34 31 26 22 23 28 33 38 42 46 52 57 56 54 55 55 53 52 52 52 52 51 52 51 48 45 42 40
88 85 75 70 61 46 34 27 24 33 39 33 29 32 32 33 38 40 42 46 38 27 29 36 33 27 28 28 27 31 39 41 32 25 21 22 31 40 35 27 30 39 53 69 75 71 67 60 45 33 33 36 34 32 35 42 47 45 38 31 27 24 24 28 30 32 33 33 36 39 40 40 41 43 44 45 46 48 50 52 53 53 53 53 51 49
81 70 56 51 48 43 42 39 34 38 43 37 32 34 32 28 30 34 38 41 36 31 34 36 32 30 28 25 24 27 31 33 29 23 23 25 29 37 35 25 21 27 40 57 68 66 57 50 43 36 35 38 39 38 40 46 51 49 41 34 31 29 30 33 35 35 35 34 34 33 33 32 31 29 29 31 33 35 37 40 42 42 44 47 49 49
92 80 64 57 56 52 46 40 36 41 49 48 41 38 34 33 37 37 34 32 34 37 41 40 36 31 24 20 23 25 26 30 30 28 29 30 29 32 33 27 22 21 27 43 58 58 54 60 66 62 57 56 52 49 48 48 46 44 41 37 32 29 32 37 39 40 41 41 42 43 42 42 40 38 36 35 35 36 36 36 38 40 40 42 44 42
84 77 68 64 63 53 41 37 42 48 53 56 52 43 37 38 40 37 32 33 38 40 42 43 38 31 25 24 24 22 22 28 32 31 30 29 31 34 35 31 25 20 21 31 44 49 52 60 69 72 69 62 56 53 52 49 49 49 45 41 36 32 36 39 38 40 43 44 46 49 50 51 50 47 45 43 43 43 40 40 43 45 43 44 44 40
71 64 59 58 55 48 47 62 76 72 62 59 55 43 35 36 39 36 32 35 41 44 46 43 35 29 26 22 20 20 22 26 30 30 29 30 35 40 45 46 42 35 31 32 37 43 49 51 55 62 62 55 52 55 55 53 52 47 43 44 43 40 41 42 38 38 40 42 45 48 51 53 52 49 46 45 47 47 43 42 46 47 44 44 44 43
66 53 42 38 38 39 43 59 76 75 66 64 58 47 39 38 39 38 35 36 39 42 43 40 35 32 31 29 28 30 30 31 33 34 33 35 37 40 47 53 54 51 48 46 44 47 50 52 55 60 63 61 57 56 55 53 48 43 45 52 50 46 47 46 40 37 37 39 44 48 50 51 50 49 49 47 48 49 46 44 48 48 43 41 42 44
46 33 28 33 41 45 42 45 56 65 67 64 56 51 48 44 41 41 38 35 34 33 35 36 36 35 36 36 35 33 32 32 32 32 32 33 34 36 39 43 47 49 50 51 52 55 57 57 57 58 61 62 57 50 46 46 43 41 45 50 49 48 49 45 39 36 35 36 40 43 46 49 48 48 46 42 43 46 45 43 44 44 40 40 42 44
39 29 33 39 43 46 46 46 48 50 52 52 49 49 49 42 37 37 35 32 31 29 29 29 29 28 29 29 28 27 27 27 27 27 28 28 29 30 32 33 36 40 42 45 47 52 56 56 53 53 53 51 49 45 40 37 37 38 40 42 43 43 40 38 36 34 31 31 34 36 39 41 40 38 34 29 29 32 30 27 28 28 28 30 32 35
44 34 36 39 39 39 40 41 39 36 36 37 35 34 33 29 26 25 24 23 22 20 18 18 17 16 17 17 17 17 17 17 18 18 19 19 19 20 22 24 27 30 34 37 39 41 45 45 43 42 41 39 37 36 33 30 31 33 33 31 32 32 30 29 29 27 26 26 27 29 29 28 27 25 21 18 18 19 16 14 13 13 13 13 14 15
35 29 29 28 26 25 24 24 25 23 21 21 20 19 18 17 16 15 16 16 15 13 12 13 12 12 12 11 12 12 11 12 12 12 12 12 12 12 13 14 16 19 23 28 32 34 36 36 35 34 33 32 31 29 26 26 26 26 25 23 24 24 23 23 23 22 22 22 21 21 20 18 17 16 14 13 13 13 12 12 10 9 8 7 6 6
22 20 20 19 18 19 20 20 20 17 17 19 19 17 15 14 14 14 14 14 12 11 11 10 9 10 10 9 9 9 9 10 10 10 11 10 10 11 11 10 10 11 13 16 20 24 27 29 32 31 30 30 29 26 24 23 22 23 23 22 21 21 20 20 21 20 19 19 19 18 16 15 13 12 12 12 11 11 11 10 9 8 7 6 6 5
18 18 18 18 17 16 17 18 17 16 17 19 20 19 18 18 19 18 16 14 12 12 12 11 11 12 11 11 11 10 10 10 9 10 10 10 11 11 10 9 9 10 10 11 12 14 17 19 21 23 23 23 23 23 23 22 21 21 21 20 20 21 21 20 20 20 19 19 18 16 14 13 11 10 11 12 12 11 10 8 7 7 6 4 4 3
Wind_Speed
12 13 13 14 15 14 14 16 14 12 15 19 13 8 9 9 11 13 13 18 15 9 9 11 13 15 18 17 15 17 21 23 25 22 21 20 21 25 29 33 34 33 30 27 27 24 22 26 27 25 27 26 22 22 23 25 23 20 19 21 22 23 23 22 20 20 21 22 22 22 22 22 21 22 22 22 23 24 25 27 29 29 29 29 29 29
13 14 14 15 16 14 15 15 11 10 14 19 15 10 10 9 9 12 15 22 24 16 10 10 14 16 19 18 18 19 12 16 24 23 21 21 23 24 25 31 36 37 34 32 34 32 26 28 29 26 26 25 22 21 23 25 23 20 20 22 23 23 23 22 21 20 20 21 22 22 22 22 22 23 23 22 22 22 23 25 28 30 30 30 30 30
14 14 12 16 17 15 14 12 13 14 16 19 17 13 12 10 9 13 18 24 24 17 11 9 13 14 18 17 21 22 16 20 26 24 26 27 26 25 26 32 39 40 36 33 35 35 32 30 28 27 25 22 22 23 24 24 23 21 21 23 24 23 23 22 21 21 20 19 21 22 21 21 21 22 22 22 22 22 22 23 26 28 29 30 31 31
13 12 13 17 17 16 16 14 14 15 16 18 15 14 12 8 9 13 19 23 22 19 14 11 12 16 22 20 20 22 19 21 23 23 26 27 26 24 25 31 36 38 36 33 33 32 33 31 27 27 25 22 23 25 25 24 23 21 21 24 25 25 24 22 21 21 20 19 19 21 22 20 20 21 21 22 22 21 21 22 23 25 27 28 29 30
12 12 17 18 12 13 17 16 15 15 16 17 15 15 13 7 9 12 21 26 25 24 17 13 15 17 22 20 15 16 19 21 23 23 23 23 24 24 25 27 31 36 35 33 32 30 31 32 27 27 28 24 21 22 24 24 23 22 22 25 26 26 25 23 22 21 21 20 19 19 21 21 21 21 21 21 22 22 21 22 22 23 25 26 27 28
14 18 22 19 12 12 13 14 16 17 17 17 15 16 16 14 15 16 21 26 22 20 16 15 17 15 16 19 15 12 17 22 21 18 18 19 21 22 23 24 26 31 32 31 31 30 30 31 28 27 27 24 22 24 24 21 23 24 23 25 26 27 26 24 23 22 21 20 19 19 20 21 21 21 21 20 21 21 22 22 22 22 23 25 26 27
17 24 22 16 14 14 14 14 17 17 18 17 16 18 19 21 22 20 20 22 19 16 16 19 19 13 12 14 14 12 17 24 21 16 18 18 19 20 20 21 24 27 29 28 29 29 28 28 29 28 27 24 24 26 23 20 24 26 26 26 26 26 27 27 25 23 22 21 20 20 20 20 20 21 21 21 21 21 21 22 22 22 23 24 25 26
20 25 21 15 13 14 15 15 16 17 19 20 20 20 21 21 24 24 23 23 23 19 19 22 21 18 16 14 13 14 18 22 21 19 19 17 17 21 21 20 22 25 27 28 29 30 29 28 28 27 27 25 23 25 25 24 26 27 28 27 26 26 28 29 27 24 23 23 23 23 20 20 20 20 21 21 21 22 21 21 22 22 23 24 25 25
22 22 20 18 14 14 15 16 16 18 18 20 22 22 21 20 22 25 24 23 24 23 22 22 21 21 21 17 16 18 20 21 21 20 20 16 12 15 19 20 20 21 24 27 27 28 29 30 28 26 28 25 23 26 27 29 29 27 28 28 27 28 29 30 29 26 25 26 27 25 21 20 21 20 21 21 21 22 22 21 22 23 23 24 24 25
22 22 20 16 14 15 15 11 10 15 17 19 23 22 21 20 19 21 22 20 20 24 24 20 20 23 22 18 15 17 18 18 19 17 16 18 16 14 18 22 22 22 25 27 27 27 27 29 29 28 29 26 24 27 28 31 33 27 27 29 29 30 31 32 32 29 27 28 29 26 21 20 21 20 19 20 20 20 21 21 22 23 23 24 24 24
18 21 20 15 14 15 16 11 8 13 18 20 21 19 19 19 19 19 18 18 21 25 23 17 18 23 23 18 15 18 22 20 18 16 16 22 23 22 24 26 26 26 27 27 27 28 28 29 28 26 28 27 27 28 26 30 36 30 28 28 30 34 35 34 34 32 30 29 30 28 23 21 20 19 18 18 19 19 19 20 21 22 22 23 23 23
16 17 18 16 16 17 19 18 16 17 18 19 19 17 18 18 19 20 19 20 24 23 21 17 18 22 24 21 14 15 23 25 22 19 20 24 26 27 27 27 27 28 29 29 29 30 29 30 28 27 28 28 30 31 27 28 34 37 35 31 34 40 39 36 36 35 33 30 29 28 24 20 18 17 17 17 18 18 18 19 20 21 21 22 22 22
15 12 13 15 16 18 20 19 19 19 18 18 19 19 20 18 18 21 21 21 23 20 18 17 17 19 21 20 13 11 20 25 24 21 23 27 30 30 29 28 29 30 31 33 33 31 29 29 30 32 34 33 32 32 30 30 33 38 41 38 39 42 40 36 37 37 34 30 28 27 23 18 16 15 15 16 17 17 18 18 19 20 20 20 21 20
11 9 10 11 11 14 17 15 12 12 15 18 18 18 18 18 19 20 19 18 19 19 18 17 16 16 17 17 14 15 21 24 23 22 25 29 31 30 30 31 33 32 30 31 31 30 30 32 32 33 36 36 34 32 32 35 34 37 42 43 43 43 40 38 38 37 34 30 28 26 22 18 15 14 15 15 16 17 18 19 19 20 20 20 20 20
8 7 9 8 8 9 11 12 11 8 11 14 17 17 15 17 19 17 16 16 16 17 17 16 16 15 15 14 13 17 21 22 21 23 26 27 27 28 29 31 34 33 29 27 29 30 31 32 31 33 35 37 37 35 35 37 38 40 43 44 45 43 39 38 39 38 34 31 29 25 21 18 15 14 15 16 16 17 18 19 20 20 20 21 21 21
10 8 7 9 11 11 8 10 13 13 9 8 12 15 14 14 16 17 18 17 16 17 16 15 16 16 17 16 16 19 22 22 25 27 26 26 27 28 29 30 32 31 27 27 28 28 28 29 29 32 36 39 40 38 36 38 40 39 38 40 42 40 36 35 38 36 32 29 26 24 22 19 16 16 16 16 17 17 18 19 19 20 21 21 21 21
12 8 7 10 12 13 11 11 13 13 11 9 8 9 11 13 15 17 18 17 18 20 19 18 19 20 20 20 20 22 23 24 28 29 26 26 28 27 27 27 27 25 24 25 26 26 26 26 27 28 34 39 40 37 36 38 38 35 33 35 40 39 34 32 34 34 31 26 25 25 23 20 18 17 17 17 18 18 18 18 19 20 21 21 21 21
17 14 9 9 8 10 13 14 14 12 13 13 8 6 9 12 14 16 15 14 17 21 20 18 19 18 16 19 23 24 22 22 25 25 25 27 29 26 24 24 25 23 22 24 26 27 27 26 25 26 30 34 36 35 35 35 33 32 31 30 31 33 30 28 31 33 31 27 26 26 24 22 20 19 19 19 20 20 19 19 20 21 21 20 20 20
21 19 16 13 7 6 10 13 13 13 14 15 13 11 11 10 11 13 13 14 16 20 19 16 16 16 15 18 24 26 22 20 21 23 23 25 28 28 26 23 22 23 23 23 25 27 28 27 25 25 27 30 32 32 32 33 31 30 30 27 25 27 27 26 29 32 30 28 27 27 25 24 22 22 22 22 22 22 22 21 21 21 21 20 19 19
25 23 23 20 13 9 13 15 14 13 14 15 17 17 17 15 14 13 14 16 16 17 18 16 15 17 17 18 23 25 24 23 23 22 19 18 24 30 27 22 22 25 25 24 24 25 27 27 26 25 27 29 31 31 32 33 31 29 29 27 26 27 26 27 30 32 30 28 28 28 26 25 25 24 24 23 22 23 23 23 23 23 22 20 19 20
27 26 24 21 16 13 17 19 16 12 10 11 15 18 18 18 17 16 19 19 17 16 18 18 17 18 19 20 21 21 21 22 22 22 20 20 26 32 28 24 26 28 27 26 25 24 26 27 27 27 27 29 31 32 32 32 32 31 30 28 27 27 28 29 31 31 30 30 29 28 27 27 27 26 25 24 23 23 22 23 24 24 23 21 19 19
28 27 24 21 20 19 20 18 14 12 12 13 14 16 16 15 16 19 21 19 18 18 19 19 20 20 21 23 23 21 22 25 25 24 22 22 28 32 28 27 30 31 30 29 27 25 25 27 29 29 29 30 32 32 32 33 34 35 35 34 32 31 31 32 33 31 30 31 30 28 28 29 28 29 28 27 27 26 24 24 24 24 22 20 19 19
30 27 25 23 23 25 25 19 14 15 16 16 17 18 18 18 20 22 21 19 21 21 19 19 21 23 23 24 27 27 27 30 31 29 26 25 31 32 27 28 32 33 32 31 29 27 24 24 28 30 31 31 32 33 33 34 35 35 36 38 38 36 35 35 34 32 31 32 31 30 31 29 28 31 32 31 30 29 26 25 24 23 21 20 20 21
32 27 26 27 27 28 28 25 23 23 25 26 27 27 26 25 25 26 25 24 26 25 23 21 23 25 25 26 29 29 28 30 33 33 30 31 36 36 31 32 35 36 34 31 29 28 26 26 27 29 32 33 33 34 35 35 36 35 33 34 37 38 38 37 36 35 34 34 34 34 35 33 32 32 33 33 33 31 29 28 26 24 24 24 24 24
31 29 30 30 30 30 29 27 24 22 24 26 27 28 32 32 30 31 30 29 33 33 29 27 27 28 28 28 28 29 29 31 33 34 32 33 38 40 38 37 38 39 37 33 31 31 31 31 29 29 32 34 34 35 36 36 36 35 32 31 32 34 35 36 36 37 36 36 36 36 37 37 37 35 34 34 34 33 32 32 31 31 30 30 30 29
31 32 33 33 32 31 29 26 21 19 22 24 22 25 30 30 30 31 30 31 35 35 30 29 29 29 30 31 31 31 32 32 33 34 34 36 39 40 40 40 39 40 39 37 36 35 35 35 34 33 33 35 37 37 37 37 37 37 36 35 34 33 34 34 34 35 35 35 36 36 36 37 37 37 37 37 36 35 34 33 34 37 37 35 35 34
36 36 35 34 34 33 32 30 27 27 28 29 29 28 27 26 28 28 29 32 33 32 31 30 30 31 32 31 31 31 30 29 30 32 33 37 39 40 41 41 39 39 39 39 40 40 40 40 39 39 38 38 40 41 40 40 39 39 39 39 39 38 38 38 36 36 37 36 35 35 36 36 36 38 39 38 36 36 37 37 38 39 39 39 39 37
38 38 37 36 37 36 35 35 34 34 34 34 36 35 35 37 39 38 37 37 35 35 35 34 33 34 34 32 32 33 33 32 33 31 29 32 37 38 39 39 38 38 39 41 42 42 43 43 42 41 40 40 42 44 44 44 43 43 43 42 43 43 43 43 42 42 42 40 39 38 38 39 39 39 39 39 39 39 40 42 41 41 41 41 41 39
39 40 39 39 39 38 38 38 38 38 39 40 41 41 41 43 43 43 43 42 41 42 41 38 37 37 36 36 36 38 39 39 39 36 31 32 35 36 38 39 38 39 41 41 42 43 42 41 39 38 38 39 41 43 46 48 47 47 46 45 46 46 46 46 46 46 46 45 44 42 42 43 43 43 43 43 43 41 41 42 43 43 42 42 44 44
41 41 40 41 42 42 42 42 43 43 43 44 43 43 45 45 44 43 43 43 43 43 42 41 41 40 39 41 42 43 43 42 42 41 40 39 37 36 39 42 40 39 39 39 40 41 41 39 37 38 40 40 39 39 43 47 49 49 50 50 49 49 49 49 49 49 49 49 48 46 46 46 44 45 46 46 47 46 45 46 47 47 46 45 46 47
41 40 39 40 42 43 43 43 44 45 45 46 46 46 47 48 47 46 44 44 43 41 41 42 43 42 41 43 45 47 48 46 44 43 42 42 40 39 41 43 41 38 37 38 39 41 43 42 39 40 41 40 38 37 38 43 46 47 48 50 51 51 52 52 52 52 51 51 51 50 49 48 47 48 49 49 50 50 50 50 51 51 50 49 49 49
40 40 38 38 40 42 41 40 41 41 42 46 48 47 47 47 47 46 44 43 41 40 41 41 40 40 42 44 46 47 48 49 49 47 44 42 42 42 41 42 42 40 38 38 39 41 44 45 45 45 43 41 41 39 37 39 41 42 44 46 48 50 51 52 52 53 53 52 52 52 51 49 48 50 51 51 51 52 52 53 53 54 53 53 53 53
39 39 37 36 38 40 39 38 39 39 43 47 46 43 42 41 42 42 42 41 39 38 40 41 41 41 43 44 45 45 45 48 50 50 48 47 47 44 41 40 42 44 42 38 39 42 45 46 49 50 46 43 44 43 41 41 41 41 43 43 44 46 47 49 50 50 51 51 52 52 52 50 49 50 51 51 52 53 54 55 55 55 56 55 54 55
43 43 43 41 41 41 39 38 39 41 45 46 40 38 39 38 39 41 41 40 38 38 40 42 45 46 45 45 46 46 46 47 48 48 49 50 50 49 46 43 43 45 43 40 42 46 48 48 51 50 45 43 44 43 43 44 43 42 43 43 43 44 46 47 48 49 49 50 50 51 52 53 53 53 54 54 54 54 55 56 57 57 57 58 58 58
47 48 48 46 46 46 44 43 44 46 47 44 39 40 44 44 43 43 41 39 40 41 40 42 45 48 46 45 46 48 49 49 47 46 46 47 49 50 51 50 49 47 46 46 47 49 50 51 52 50 46 46 48 47 45 47 48 45 45 46 47 46 46 47 48 48 49 49 50 51 52 53 53 54 56 57 57 57 57 57 59 60 60 59 60 60
47 48 47 46 46 45 45 45 47 48 46 43 39 41 46 47 46 45 42 40 40 41 41 43 45 47 46 45 46 47 49 50 49 46 45 46 47 48 50 51 51 49 48 49 48 50 54 55 55 54 52 51 52 52 52 54 53 51 51 52 51 47 46 47 47 48 49 49 50 51 52 52 52 53 54 56 57 58 59 59 60 61 61 61 60 61
45 46 47 47 45 44 45 46 47 47 46 45 44 45 47 46 46 45 41 38 38 41 43 45 46 47 47 48 49 50 51 52 51 50 48 47 47 48 49 51 52 51 51 50 49 50 53 54 55 56 56 54 55 57 57 57 56 54 54 53 51 48 47 47 47 48 49 49 50 51 52 52 52 52 53 54 55 57 58 59 60 61 62 62 63 63
39 42 44 45 44 44 43 44 45 45 44 44 43 44 43 42 43 43 40 37 38 40 43 44 45 46 47 46 48 50 50 50 51 52 50 48 48 51 52 52 53 54 54 52 50 51 51 51 54 56 56 58 60 59 59 58 57 56 54 52 50 49 48 47 47 48 49 49 50 52 52 52 53 53 54 54 55 55 56 57 58 58 60 61 62 63
39 41 43 43 43 42 42 41 41 41 41 40 40 40 40 40 40 41 42 41 40 40 41 43 46 48 48 47 47 48 48 48 48 48 47 46 48 51 53 53 53 55 56 55 55 56 57 58 61 62 62 63 62 59 59 59 59 57 54 52 50 49 48 48 48 48 48 49 51 52 53 53 53 54 55 55 56 56 57 57 58 58 58 59 59 60
42 43 43 42 42 42 41 40 39 39 40 42 42 43 43 42 40 40 42 44 44 44 46 48 50 51 50 49 47 46 47 49 50 50 49 47 47 49 52 53 53 53 55 56 57 59 61 65 66 66 64 63 60 57 57 56 56 55 52 50 49 49 48 48 48 48 48 49 50 51 52 53 54 55 55 55 56 57 57 58 58 58 58 58 58 58
38 40 40 38 38 38 38 37 37 37 40 43 44 45 46 46 45 45 47 47 46 46 48 50 52 52 51 50 50 49 50 52 53 52 50 49 49 49 51 53 54 53 54 56 59 60 62 64 65 63 62 61 58 56 54 53 53 53 52 50 49 49 48 48 47 48 48 48 49 50 50 52 53 53 54 54 55 56 56 57 57 57 57 57 57 57
34 36 36 35 35 36 37 37 38 38 40 42 44 46 48 47 47 49 50 49 47 46 48 51 53 54 53 53 52 52 51 52 53 53 51 52 52 52 52 54 55 55 55 56 58 59 60 60 61 60 60 60 58 57 55 54 54 53 53 51 50 49 48 48 48 48 48 48 48 49 49 50 51 51 52 52 53 53 54 54 55 55 55 55 55 56
36 37 37 35 35 37 38 38 39 39 41 43 45 47 48 48 48 50 50 49 48 48 49 51 52 53 55 55 55 54 52 52 52 53 53 53 53 54 55 56 57 58 58 58 58 58 59 59 59 59 60 60 59 58 57 56 55 54 54 53 52 50 48 48 49 48 48 48 47 47 48 49 49 50 50 50 51 52 52 52 52 53 53 53 53 54
39 40 40 39 39 38 36 36 37 39 42 44 46 47 48 48 48 49 49 48 49 49 49 51 52 54 55 56 56 55 54 53 53 53 53 53 53 54 54 55 57 58 59 59 59 59 60 60 60 60 61 61 60 60 59 58 57 56 55 54 53 52 50 50 50 49 48 47 47 47 47 47 48 49 49 49 49 50 50 50 50 50 50 51 51 52
39 40 41 41 40 39 38 37 39 40 42 44 46 48 48 47 47 48 48 48 48 49 50 51 52 52 52 53 53 52 52 52 52 52 52 52 52 53 53 54 56 57 58 59 60 60 60 60 59 60 61 62 62 61 61 60 59 57 55 54 54 53 52 52 51 50 49 48 47 46 47 47 47 48 48 48 49 49 50 49 49 49 49 50 50 51
39 39 38 37 37 38 38 38 40 40 41 43 46 47 47 47 47 48 48 48 48 49 49 49 49 49 49 50 51 50 51 52 52 52 52 51 51 51 52 53 54 55 56 58 58 59 60 60 60 60 61 61 62 61 60 59 59 57 55 55 55 54 53 53 52 51 50 49 48 48 47 47 47 47 48 48 47 47 48 48 47 48 48 49 49 49
37 35 33 34 35 36 37 38 40 40 41 42 43 45 47 47 47 47 47 47 48 48 48 48 48 48 48 49 50 50 50 51 52 53 52 52 51 51 51 51 52 53 55 57 58 59 60 60 60 60 61 61 60 60 60 58 56 54 54 54 54 54 54 53 53 52 52 50 49 48 47 47 48 48 47 46 45 46 47 46 46 47 48 48 47 47
33 32 32 34 35 35 35 36 38 39 40 41 43 45 46 46 45 46 48 48 49 49 50 50 50 50 49 50 50 51 51 51 53 53 53 53 52 51 51 52 52 53 55 57 58 59 61 62 62 62 61 60 59 59 59 56 53 53 55 55 55 55 55 54 53 53 52 50 49 48 48 48 48 47 46 45 45 47 47 46 46 47 48 47 46 46
29 30 31 33 34 35 35 37 38 39 40 42 44 45 46 46 46 47 49 49 50 50 50 50 51 51 51 51 51 52 52 52 53 54 54 54 54 54 53 53 53 53 55 57 59 61 62 62 62 61 60 59 59 60 59 56 54 55 56 56 55 55 55 55 54 53 52 51 50 49 48 48 47 47 47 46 47 47 48 47 47 47 48 47 46 46
30 31 32 33 35 36 38 39 40 41 41 42 44 45 45 45 46 47 47 47 47 47 48 48 48 49 49 49 50 51 51 51 52 53 53 54 55 55 55 55 55 55 55 56 58 60 61 61 61 62 61 60 61 62 61 58 56 57 58 58 57 56 55 56 55 53 52 52 51 49 48 48 48 48 49 48 47 46 47 48 48 48 47 47 47 46
32 32 32 34 36 38 39 40 41 42 42 42 42 42 43 42 42 43 43 43 42 42 43 43 43 42 42 43 44 45 46 47 48 49 50 51 51 52 54 55 55 56 56 56 58 59 60 60 62 62 61 61 61 62 61 59 58 57 58 59 58 57 57 56 56 55 53 52 51 50 49 50 50 50 50 49 47 46 46 48 48 47 47 48 47 47
Wind_Direction
245 243 242 239 235 227 216 217 230 236 210 191 187 219 230 227 216 210 236 247 240 249 240 202 199 216 221 225 245 272 275 263 256 251 244 244 255 267 274 275 271 273 277 272 271 280 282 280 281 280 281 281 279 275 273 273 278 288 294 294 293 291 290 287 286 284 284 288 289 287 286 285 284 282 279 273 267 263 260 260 261 261 260 259 261 265
244 244 246 244 241 239 235 231 230 222 203 201 208 215 202 200 223 223 235 260 265 258 253 214 200 231 231 208 232 253 247 255 262 259 258 263 261 261 265 270 273 274 276 275 273 277 281 282 281 281 280 280 277 275 276 276 281 288 291 291 291 290 289 288 288 287 288 291 292 290 287 285 284 284 283 279 272 266 261 258 257 259 259 260 262 264
245 241 244 252 247 240 241 232 217 216 210 212 228 228 196 184 210 221 224 242 259 262 264 234 196 225 245 218 218 234 243 263 268 267 268 270 268 263 260 262 268 269 270 271 272 277 282 281 281 281 278 275 275 276 279 279 282 288 291 292 291 289 289 290 290 291 293 296 297 295 290 286 284 283 283 281 277 272 265 260 257 257 258 260 263 266
247 242 239 250 250 238 236 236 225 224 222 221 231 227 203 189 202 227 243 239 245 259 262 248 216 213 230 230 224 232 247 266 275 276 270 267 270 269 264 262 264 265 265 269 274 278 280 278 277 278 277 277 279 279 278 278 283 291 293 291 289 290 293 293 293 294 296 299 300 298 295 290 285 283 283 281 280 277 271 265 261 259 260 262 265 268
240 240 240 243 243 234 233 236 234 227 227 227 229 223 206 204 209 229 260 253 244 256 262 260 255 233 232 248 257 244 245 264 275 273 267 269 272 270 266 265 266 267 263 264 270 274 275 276 274 275 280 282 282 281 279 280 288 293 293 291 289 292 297 298 296 296 299 301 299 297 295 292 287 284 283 282 281 279 276 273 268 266 265 267 269 271
234 239 245 245 237 234 234 234 236 233 232 231 231 230 216 215 216 217 248 255 250 256 262 259 260 255 254 266 275 247 237 258 267 261 268 275 272 270 268 267 268 269 267 262 264 268 273 278 277 276 279 279 279 281 279 282 292 294 294 294 292 293 297 299 299 300 301 301 299 297 295 292 289 285 283 282 281 279 279 277 275 273 272 272 273 274
228 239 249 256 248 241 242 238 237 237 237 235 234 235 227 222 221 220 238 252 259 265 264 264 261 250 249 257 271 265 247 256 261 257 271 277 272 273 271 266 265 268 272 269 265 265 269 275 276 275 276 277 276 276 277 283 291 293 293 294 291 293 296 296 300 304 303 301 299 298 296 292 288 285 284 282 280 278 278 278 277 276 276 275 275 274
232 242 252 260 254 241 239 239 240 240 238 238 238 240 238 229 226 234 248 255 263 268 262 265 265 254 248 236 236 244 235 244 258 264 273 279 277 276 275 271 264 261 264 265 267 269 271 273 275 277 280 282 277 274 278 282 287 290 291 291 288 292 297 296 298 305 304 302 301 300 298 294 291 288 285 282 280 278 276 276 276 276 276 276 276 275
240 247 255 254 247 241 239 239 242 242 237 237 239 241 244 239 230 236 248 255 259 260 255 259 263 262 261 246 229 232 228 234 254 265 269 268 263 267 273 273 265 260 263 265 268 272 274 274 274 277 281 281 277 280 283 279 280 288 290 289 289 292 298 297 298 302 303 304 302 301 300 296 295 291 287 284 279 277 276 275 274 274 274 274 274 275
247 248 254 254 245 239 233 237 256 252 239 237 240 243 247 248 244 240 245 252 254 254 254 252 256 263 266 255 239 240 237 236 246 255 260 256 245 238 249 261 265 267 270 269 267 267 269 271 273 277 280 278 276 282 284 273 271 284 292 290 289 294 296 295 297 297 300 304 301 298 298 297 296 291 288 285 280 278 277 276 275 274 274 274 274 274
252 250 253 255 249 241 229 223 250 255 244 242 245 245 245 247 250 249 250 252 249 252 258 254 250 259 263 255 240 233 236 245 251 244 244 253 254 250 252 263 269 269 269 268 267 264 260 263 268 273 276 278 278 282 281 267 264 279 296 289 282 288 292 292 293 294 296 300 297 294 294 293 292 289 287 285 282 281 279 278 277 277 277 277 277 277
246 261 266 256 247 246 242 238 242 251 252 253 253 248 245 245 248 250 251 252 251 256 266 262 250 251 255 252 243 233 238 250 254 240 241 257 264 262 264 269 269 267 267 268 268 263 260 263 266 265 266 270 275 279 278 267 262 273 287 285 275 280 286 288 289 290 294 296 292 289 288 287 287 286 286 285 282 281 279 278 277 276 277 277 277 277
236 254 265 256 245 241 241 244 246 250 252 250 251 249 245 244 246 248 248 251 255 259 260 256 248 246 249 246 236 233 243 250 250 245 252 266 271 271 273 274 271 270 269 268 267 265 266 268 267 263 264 268 271 274 274 270 265 269 278 280 277 279 283 285 286 288 292 294 287 283 282 280 281 283 284 283 281 279 278 278 278 277 277 276 276 277
233 230 242 248 248 240 230 228 234 251 259 248 239 242 243 240 243 247 249 253 258 259 254 250 246 243 250 252 237 230 242 249 253 258 266 273 276 277 277 274 273 274 272 271 269 267 265 264 263 262 266 271 271 270 270 270 270 272 276 278 277 279 282 282 283 285 288 287 280 278 277 275 276 281 283 282 281 281 280 280 279 279 278 278 278 278
233 240 248 233 234 244 223 208 203 216 264 259 231 228 238 242 243 245 247 250 255 259 254 247 247 247 252 255 242 235 246 257 266 272 276 278 279 278 276 274 273 274 274 274 270 265 261 261 260 258 260 266 267 266 268 269 272 273 275 275 271 273 278 279 279 282 282 279 276 274 274 273 273 278 281 281 282 282 281 281 280 280 280 279 280 280
235 246 251 208 211 236 214 199 214 213 231 251 224 222 239 246 245 245 243 243 247 255 257 253 253 257 256 255 251 250 259 270 274 276 278 279 279 277 275 272 273 273 271 269 267 263 259 257 256 251 251 255 260 263 265 266 268 268 270 271 267 269 276 277 276 278 277 276 275 272 272 273 275 280 282 281 281 280 280 282 283 283 282 282 282 282
225 217 238 225 231 250 230 211 231 225 211 220 226 232 246 243 241 246 247 246 248 251 255 261 264 266 267 267 263 261 266 272 272 275 280 278 276 277 277 275 276 277 271 266 264 261 257 254 252 248 245 247 253 259 262 262 264 266 267 267 265 269 275 274 269 269 269 271 274 273 272 273 277 281 281 281 280 279 280 282 283 284 283 283 283 283
211 188 204 239 249 257 245 234 236 232 223 227 233 245 255 252 243 244 248 251 254 254 253 257 264 268 266 266 269 271 271 266 268 278 285 282 279 280 283 284 282 281 277 271 265 261 260 256 250 246 242 243 248 253 256 259 261 264 265 263 261 262 265 262 259 259 262 266 269 271 272 274 276 278 279 280 279 279 281 280 281 281 280 280 281 282
223 204 211 236 243 245 258 254 238 231 238 238 231 231 246 258 250 245 250 253 257 261 261 260 264 267 258 255 265 272 269 261 267 281 284 281 283 284 287 291 287 283 283 279 269 263 261 258 250 245 241 242 245 247 250 253 256 260 258 252 250 251 250 248 248 253 257 260 260 263 268 272 275 278 279 279 280 282 282 279 277 277 276 275 276 280
234 227 227 236 243 236 235 242 239 239 249 249 244 240 241 249 251 247 249 251 253 259 264 262 260 263 262 257 258 260 261 261 265 274 270 263 275 285 290 291 285 285 287 283 276 267 260 257 253 245 239 239 243 245 247 249 252 255 253 247 246 246 244 243 245 250 254 255 255 256 262 268 272 276 277 278 281 283 281 279 280 277 272 271 274 277
236 237 237 237 243 238 228 237 254 264 257 250 257 256 249 253 258 249 244 248 253 259 263 262 258 262 267 265 260 257 260 261 267 275 268 256 268 281 287 285 281 284 285 281 280 272 261 257 255 248 241 238 241 245 247 249 251 255 256 254 250 244 242 244 247 250 253 257 257 256 259 265 268 270 273 274 274 272 271 275 276 272 268 270 275 275
240 241 243 242 247 252 250 253 263 263 240 224 242 255 250 251 255 249 246 247 251 256 259 259 258 262 266 266 264 265 266 267 274 282 272 258 268 279 284 283 282 283 282 277 277 274 264 257 256 253 247 242 242 244 246 249 251 254 257 256 251 245 242 244 247 250 254 256 257 257 258 263 268 270 270 268 266 266 269 270 269 266 267 270 273 272
244 245 247 247 248 252 255 256 256 263 257 243 251 261 255 252 252 249 251 253 253 254 257 259 259 260 263 264 263 263 266 270 275 280 274 264 270 277 281 282 280 281 280 275 272 270 263 258 257 256 253 250 247 246 247 248 252 256 258 256 253 252 250 248 247 250 252 252 254 255 254 257 264 266 265 264 266 270 273 272 269 267 267 268 271 272
249 250 251 253 253 254 258 261 259 264 269 269 270 268 261 259 259 257 260 263 261 258 255 258 263 264 264 265 264 264 266 269 271 274 272 269 274 278 278 278 278 280 279 274 270 266 260 257 259 258 255 253 251 250 250 251 253 257 259 256 253 253 254 252 249 250 251 250 250 252 252 254 258 260 263 266 268 271 274 274 271 266 264 266 269 271
253 253 253 255 256 256 259 263 264 265 268 270 272 266 259 257 256 257 260 260 261 261 259 258 263 266 265 263 265 268 270 271 272 274 272 272 277 281 279 276 276 278 278 273 270 269 264 261 261 258 255 253 252 253 253 253 255 258 258 255 252 251 252 252 251 252 253 252 252 254 257 259 258 258 265 270 271 272 274 274 273 271 268 265 264 266
255 255 254 256 258 258 258 259 256 251 250 250 254 260 259 254 250 252 255 256 259 261 260 258 259 261 263 263 265 269 272 271 269 271 272 272 275 277 276 275 274 274 274 271 270 271 268 263 263 262 259 254 251 250 251 252 253 256 257 257 255 253 253 253 253 255 255 255 255 255 257 259 259 260 265 268 268 270 272 269 269 273 272 265 261 264
256 257 257 258 258 259 259 257 251 248 250 249 252 260 264 261 258 256 256 258 262 262 259 258 259 258 258 261 265 268 271 270 265 264 268 270 271 271 272 274 273 271 271 272 273 273 268 265 266 266 262 256 251 248 249 249 250 252 254 255 257 258 258 257 258 259 258 258 258 257 257 257 258 260 263 263 263 267 271 268 265 269 270 265 263 263
258 260 260 260 260 260 260 259 257 256 256 256 257 260 263 266 268 267 265 263 262 262 261 261 262 260 257 257 259 260 261 263 265 265 265 264 265 267 271 272 270 271 274 275 275 273 270 269 269 266 262 257 253 249 248 248 249 250 251 253 255 258 260 261 262 263 262 262 261 260 260 260 261 261 261 262 263 265 268 268 268 268 267 265 264 264
260 261 263 263 263 262 261 261 260 258 257 257 259 261 262 265 267 267 266 262 259 259 262 262 261 262 260 256 254 256 258 259 262 263 261 259 261 265 267 267 268 274 277 276 274 273 270 267 264 263 262 260 257 253 250 249 250 250 251 252 254 255 257 259 261 263 264 265 264 262 262 262 263 263 263 264 263 262 263 266 268 268 267 265 264 264
261 261 263 264 264 262 262 262 262 261 259 258 258 260 262 263 263 262 261 261 259 259 260 261 260 258 257 256 254 256 259 259 260 261 261 261 261 262 262 264 268 274 276 275 274 272 269 264 260 260 262 261 261 260 256 251 250 251 252 253 254 255 257 258 259 261 262 264 265 264 263 263 263 263 264 264 264 264 266 268 269 269 268 267 266 265
264 264 264 264 264 262 262 262 263 263 261 259 258 260 261 262 262 262 263 265 264 261 258 259 259 257 256 257 256 256 257 257 257 258 259 260 260 259 261 264 266 267 268 271 274 271 267 264 262 262 262 261 262 265 261 254 251 252 254 255 256 257 257 258 259 259 260 261 262 262 262 263 262 262 262 264 265 266 268 268 269 269 268 268 268 267
266 267 267 266 265 263 262 261 261 261 261 259 259 259 260 262 265 266 267 268 265 261 259 259 260 258 256 255 255 255 255 254 253 253 253 255 256 258 260 262 262 260 261 265 268 266 265 265 264 262 262 263 262 261 260 257 255 256 257 256 257 257 257 258 258 258 259 259 259 259 259 259 259 260 261 262 263 265 266 266 267 267 267 268 269 268
265 265 265 264 263 263 262 261 260 261 262 263 264 265 265 266 268 267 266 265 263 260 259 258 257 256 254 253 255 256 255 253 252 252 253 253 254 255 255 258 261 260 259 259 260 261 264 266 265 263 262 263 262 259 258 258 259 260 258 256 257 259 259 259 259 259 258 258 257 257 256 255 255 256 258 260 261 263 264 265 265 266 267 269 269 269
264 263 263 262 262 263 264 263 263 263 265 268 271 273 272 270 268 265 264 265 267 265 261 256 254 254 253 255 258 258 256 253 252 252 252 252 253 253 253 254 257 258 258 257 258 262 264 264 264 264 263 263 264 263 260 259 260 260 257 257 261 262 261 260 259 259 259 258 257 256 255 254 253 253 255 258 260 261 262 263 264 266 267 268 269 270
263 263 263 262 263 265 266 266 266 266 269 273 275 273 270 267 265 264 265 267 269 267 261 256 255 256 255 255 257 257 257 256 253 250 249 250 251 251 250 251 253 256 258 257 258 263 265 264 264 266 265 264 265 266 264 262 263 262 258 261 266 264 260 259 259 259 259 259 259 258 257 256 256 255 255 256 257 258 260 261 263 264 265 266 268 269
263 264 264 263 262 264 266 266 268 270 273 274 272 269 269 269 267 266 265 266 267 264 259 256 257 257 256 254 255 256 257 257 255 251 249 250 250 250 251 251 252 254 257 256 256 259 262 264 266 267 265 264 265 266 265 265 266 264 262 265 268 264 259 258 258 258 258 258 258 259 259 259 259 258 258 257 256 257 258 260 261 262 262 263 264 265
263 264 265 264 264 265 266 267 269 271 273 271 268 268 270 273 273 270 267 266 264 261 260 260 259 258 257 257 258 259 259 260 260 257 254 252 251 250 249 250 251 251 253 254 255 258 261 263 264 264 263 262 263 264 266 267 268 266 264 266 266 263 260 259 258 257 257 257 257 258 259 260 260 261 261 261 260 260 261 261 262 262 263 263 264 265
263 263 264 266 268 268 269 270 270 270 270 270 271 271 271 270 271 272 271 270 266 263 264 263 261 260 261 261 262 263 264 264 263 261 258 255 252 251 250 249 248 249 250 251 252 254 256 256 257 260 262 262 262 264 266 267 267 267 266 265 264 262 261 259 258 258 257 257 257 258 258 259 260 261 261 262 263 263 264 264 265 265 266 266 266 267
260 262 265 268 269 270 271 271 271 270 268 267 267 269 269 268 269 271 273 271 268 266 266 264 263 266 268 266 265 265 265 264 262 262 261 258 254 253 253 251 248 248 248 249 250 251 251 252 254 257 260 262 264 265 265 264 265 266 265 264 262 262 262 261 260 260 259 258 258 258 258 259 259 260 261 262 263 264 265 266 267 267 268 268 268 268
260 262 265 267 268 269 269 268 268 269 269 268 268 269 269 268 268 269 268 268 269 270 268 266 266 268 269 268 266 264 262 262 263 264 264 260 255 252 252 252 251 248 246 247 248 249 251 252 255 257 259 262 264 265 264 262 262 263 263 262 261 262 262 262 261 261 260 260 259 259 260 260 260 260 261 262 263 264 266 267 268 269 269 269 269 268
263 262 261 264 267 267 267 268 268 267 268 269 270 271 271 270 269 267 265 266 268 268 267 266 267 268 268 267 267 265 263 263 264 265 264 261 257 254 254 255 254 252 249 248 248 250 251 254 256 259 260 262 263 263 262 260 259 260 261 261 260 260 261 261 261 261 261 261 261 261 261 261 261 262 262 263 263 264 265 267 268 269 269 270 269 269
263 264 263 263 265 265 266 268 269 267 267 268 269 270 271 271 269 268 268 269 268 266 264 266 268 269 270 269 268 267 265 264 265 265 264 263 261 259 257 256 256 254 252 250 249 251 252 253 255 258 259 259 260 260 260 259 259 260 261 261 261 260 261 261 261 261 261 261 262 262 262 262 263 264 264 264 265 265 266 267 268 269 269 270 270 270
255 260 263 265 266 267 268 270 269 266 265 266 267 268 269 269 268 270 271 271 269 267 266 266 268 269 270 270 269 268 267 265 265 265 264 264 263 261 259 259 258 257 255 253 251 252 252 251 252 254 256 257 258 259 260 260 260 260 261 261 262 262 262 262 262 262 262 263 262 263 263 263 264 265 265 266 266 267 267 267 268 269 269 270 270 270
256 259 262 263 264 266 267 265 264 264 265 266 267 268 268 269 270 271 272 271 270 269 268 267 268 269 269 269 270 271 270 269 267 266 265 263 262 261 260 260 260 259 258 256 255 254 254 253 253 254 256 257 258 259 259 259 259 260 261 261 263 263 263 263 264 264 264 264 264 264 263 263 264 265 266 266 267 268 268 268 269 269 270 270 270 270
257 259 262 264 266 267 265 262 261 264 267 269 269 270 270 271 271 272 273 272 271 271 270 270 271 272 272 273 273 272 271 270 269 267 265 263 262 261 260 259 259 259 259 259 258 257 257 256 255 255 255 257 257 258 258 259 260 261 261 262 263 263 264 264 265 265 266 266 266 265 264 264 264 265 266 267 268 268 268 268 269 269 270 271 271 271
260 263 266 268 268 268 267 266 264 265 267 268 270 272 274 274 274 274 274 274 274 274 274 274 274 274 274 274 273 272 271 270 269 268 266 265 263 262 261 261 260 260 260 260 259 258 257 257 257 256 255 255 257 258 259 259 260 261 261 261 261 262 263 264 265 266 266 266 266 265 265 265 266 266 267 267 267 267 267 268 268 269 269 270 270 271
269 271 271 269 267 268 268 267 267 268 269 270 271 272 273 275 277 278 278 278 278 277 276 275 274 273 272 272 272 272 272 272 271 271 270 268 267 265 264 263 261 260 259 259 258 258 257 257 257 256 256 256 257 258 259 259 260 261 261 260 260 261 262 263 264 265 266 266 266 266 267 266 266 266 266 267 267 266 266 266 267 268 269 269 270 271
273 275 273 271 271 271 270 269 270 272 273 273 273 273 274 276 277 277 277 277 276 276 276 276 276 276 275 274 273 272 271 271 271 271 270 269 268 267 265 263 261 259 258 257 257 256 256 256 256 256 256 257 257 258 259 259 261 261 261 260 260 261 262 262 263 264 266 266 267 267 266 266 266 266 266 266 266 266 266 267 268 268 269 270 270 270
275 275 274 275 276 277 276 276 275 276 276 276 276 276 277 277 277 276 276 277 277 277 277 277 277 277 276 275 274 273 272 271 270 269 269 269 268 268 266 265 262 260 258 257 256 256 255 256 257 258 258 258 259 259 259 259 259 260 261 261 261 262 263 264 264 264 265 266 266 266 266 267 267 267 266 266 265 266 268 269 269 269 270 271 271 270
276 275 276 279 280 280 281 281 281 281 280 280 279 279 279 279 279 278 278 279 279 279 278 278 277 277 277 276 276 275 274 273 272 271 270 269 269 268 267 266 264 262 260 258 257 257 256 257 257 257 257 257 257 259 260 260 260 260 261 262 263 263 263 264 264 264 264 264 265 265 266 266 267 267 266 266 265 266 267 268 269 269 270 271 271 270
279 281 282 282 281 280 281 281 282 283 282 281 280 281 280 280 280 280 280 281 281 281 280 280 279 279 278 277 277 277 276 274 273 272 272 270 269 268 267 266 265 264 262 259 258 257 257 256 256 256 256 256 256 258 259 260 260 260 261 262 263 263 263 263 263 263 263 263 263 264 264 265 266 266 266 266 267 268 268 268 269 269 269 269 270 270